Location: Eindhoven
(51.4416°N, 5.4697°E)
Time: 19:21:21
(UTC+01:00)

deb Explorer IX - Pass Details

Date: 22 November 2019
Orbit: 546 x 1104 km, 38.8° (Epoch: 11 December)

Event Time Altitude Azimuth Distance (km) Brightness Sun altitude
Rises 00:19:26 0° 215° (SW) 3,833 - -58.6°
Reaches altitude 10° 00:23:16 10° 197° (SSW) 2,807 - -58.6°
Maximum altitude 00:27:22 17° 159° (SSE) 2,238 - -58.6°
Drops below altitude 10° 00:31:13 10° 121° (ESE) 2,593 - -58.5°
Sets 00:34:33 0° 102° (ESE) 3,421 - -58.5°
